When you browse on this site, cookies collect data to enhance your experience and personalize the content and advertising you see.
Visit our Privacy Policy to learn more. By continuing to use the site, you agree to this use of cookies and data.
EN

Hourly Weather Alibaevo

Today, 13 August, Thursday

Time Temperature Precipitation Wind Pressure Humidity
00:00 +13°C° 0 mm 1 mps 731 mmHg 90%
01:00 +13°C° 0 mm 1 mps 731 mmHg 90%
02:00 +12°C° 0 mm 1 mps 731 mmHg 90%
03:00 +12°C° 0 mm 1 mps 731 mmHg 90%
04:00 +11°C° 0 mm 1 mps 731 mmHg 90%
05:00 +13°C° 0 mm 1 mps 731 mmHg 85%
06:00 +14°C° 0 mm 1 mps 731 mmHg 81%
07:00 +15°C° 0 mm 1 mps 731 mmHg 76%
08:00 +18°C° 0 mm 1 mps 731 mmHg 69%
09:00 +20°C° 0 mm 1 mps 731 mmHg 62%
10:00 +22°C° 0 mm 1 mps 731 mmHg 52%
11:00 +23°C° 0 mm 1 mps 731 mmHg 49%
12:00 +23°C° 0 mm 2 mps 731 mmHg 46%
13:00 +24°C° 0 mm 2 mps 731 mmHg 42%
14:00 +24°C° 0 mm 2 mps 731 mmHg 42%
15:00 +24°C° 0 mm 2 mps 731 mmHg 42%
16:00 +24°C° 0 mm 2 mps 730 mmHg 41%
17:00 +23°C° 0 mm 1 mps 730 mmHg 46%
18:00 +22°C° 0 mm 1 mps 730 mmHg 51%
19:00 +21°C° 0 mm 1 mps 730 mmHg 56%
20:00 +19°C° 0 mm 1 mps 730 mmHg 60%
21:00 +18°C° 0 mm 1 mps 729 mmHg 63%
22:00 +16°C° 0 mm 2 mps 729 mmHg 66%
23:00 +16°C° 0 mm 2 mps 729 mmHg 67%

Tomorrow, 14 August, Friday

Time Temperature Precipitation Wind Pressure Humidity
00:00 +16°C° 0 mm 2 mps 729 mmHg 67%
01:00 +17°C° 0 mm 2 mps 729 mmHg 67%
02:00 +17°C° 0 mm 2 mps 729 mmHg 65%
03:00 +17°C° 0 mm 3 mps 728 mmHg 63%
04:00 +17°C° 0 mm 3 mps 728 mmHg 61%
05:00 +16°C° 1.1 mm 3 mps 728 mmHg 72%
06:00 +16°C° 1.1 mm 2 mps 728 mmHg 83%
07:00 +15°C° 1.1 mm 2 mps 728 mmHg 94%
08:00 +16°C° 1.2 mm 2 mps 728 mmHg 93%
09:00 +16°C° 1.2 mm 2 mps 727 mmHg 93%
10:00 +17°C° 1.2 mm 3 mps 727 mmHg 92%
11:00 +18°C° 0.3 mm 3 mps 727 mmHg 87%
12:00 +19°C° 0.3 mm 3 mps 727 mmHg 81%
13:00 +20°C° 0.3 mm 3 mps 727 mmHg 75%
14:00 +21°C° 0.4 mm 3 mps 727 mmHg 70%
15:00 +22°C° 0.4 mm 3 mps 727 mmHg 64%
16:00 +23°C° 0.4 mm 4 mps 727 mmHg 58%
17:00 +21°C° 0.3 mm 3 mps 727 mmHg 62%
18:00 +20°C° 0.3 mm 3 mps 727 mmHg 66%
19:00 +18°C° 0.3 mm 2 mps 727 mmHg 70%
20:00 +18°C° 0 mm 2 mps 727 mmHg 71%
21:00 +18°C° 0 mm 1 mps 727 mmHg 72%
22:00 +16°C° 0 mm 1 mps 727 mmHg 73%
23:00 +16°C° 0 mm 1 mps 727 mmHg 74%

Day after tomorrow, 15 August, Saturday

Time Temperature Precipitation Wind Pressure Humidity
00:00 +16°C° 0 mm 1 mps 728 mmHg 75%
01:00 +16°C° 0 mm 1 mps 728 mmHg 77%
02:00 +16°C° 0 mm 1 mps 728 mmHg 76%
03:00 +16°C° 0 mm 1 mps 728 mmHg 75%
04:00 +15°C° 0 mm 1 mps 728 mmHg 75%
05:00 +16°C° 0 mm 1 mps 728 mmHg 75%
06:00 +16°C° 0 mm 1 mps 728 mmHg 75%
07:00 +18°C° 0 mm 1 mps 728 mmHg 75%
08:00 +18°C° 0 mm 2 mps 728 mmHg 67%
09:00 +20°C° 0 mm 3 mps 728 mmHg 59%
10:00 +21°C° 0 mm 3 mps 728 mmHg 51%
11:00 +21°C° 0 mm 4 mps 728 mmHg 49%
12:00 +22°C° 0 mm 4 mps 728 mmHg 47%
13:00 +22°C° 0 mm 5 mps 728 mmHg 45%
14:00 +22°C° 0 mm 5 mps 728 mmHg 45%
15:00 +22°C° 0 mm 5 mps 728 mmHg 44%
16:00 +22°C° 0 mm 4 mps 727 mmHg 44%
17:00 +21°C° 0 mm 4 mps 727 mmHg 49%
18:00 +19°C° 0 mm 3 mps 727 mmHg 54%
19:00 +18°C° 0 mm 2 mps 727 mmHg 58%
20:00 +17°C° 0 mm 2 mps 727 mmHg 63%
21:00 +15°C° 0 mm 2 mps 726 mmHg 68%
22:00 +14°C° 0 mm 2 mps 726 mmHg 73%
23:00 +13°C° 0 mm 2 mps 726 mmHg 77%

16 August, Sunday

Time Temperature Precipitation Wind Pressure Humidity
00:00 +13°C° 0 mm 2 mps 726 mmHg 80%
01:00 +12°C° 0 mm 2 mps 726 mmHg 84%
02:00 +12°C° 0.1 mm 2 mps 726 mmHg 86%
03:00 +12°C° 0.1 mm 2 mps 726 mmHg 88%
04:00 +10°C° 0.1 mm 2 mps 726 mmHg 90%
05:00 +12°C° 0.2 mm 2 mps 726 mmHg 89%
06:00 +13°C° 0.2 mm 2 mps 726 mmHg 87%
07:00 +14°C° 0.2 mm 2 mps 725 mmHg 86%
08:00 +13°C° 0 mm 3 mps 726 mmHg 83%
09:00 +14°C° 0 mm 3 mps 726 mmHg 79%
10:00 +15°C° 0 mm 4 mps 726 mmHg 76%
11:00 +17°C° 0.2 mm 4 mps 726 mmHg 75%
12:00 +17°C° 0.2 mm 4 mps 726 mmHg 73%
13:00 +17°C° 0.2 mm 4 mps 726 mmHg 72%
14:00 +18°C° 0.6 mm 4 mps 726 mmHg 72%
15:00 +17°C° 0.6 mm 5 mps 726 mmHg 73%
16:00 +17°C° 0.6 mm 5 mps 726 mmHg 73%
17:00 +17°C° 0.3 mm 4 mps 726 mmHg 77%
18:00 +15°C° 0.3 mm 4 mps 726 mmHg 82%
19:00 +14°C° 0.3 mm 3 mps 726 mmHg 87%
20:00 +13°C° 0.1 mm 3 mps 726 mmHg 89%
21:00 +12°C° 0.1 mm 3 mps 726 mmHg 92%
22:00 +12°C° 0.1 mm 3 mps 726 mmHg 95%
23:00 +11°C° 0 mm 3 mps 726 mmHg 96%

17 August, Monday

Time Temperature Precipitation Wind Pressure Humidity
00:00 +11°C° 0 mm 3 mps 726 mmHg 97%
01:00 +11°C° 0 mm 3 mps 726 mmHg 98%
02:00 +11°C° 0 mm 3 mps 726 mmHg 97%
03:00 +11°C° 0 mm 3 mps 726 mmHg 96%
04:00 +11°C° 0 mm 3 mps 726 mmHg 96%
05:00 +11°C° 0 mm 3 mps 726 mmHg 94%
06:00 +12°C° 0 mm 3 mps 726 mmHg 93%
07:00 +12°C° 0 mm 3 mps 726 mmHg 91%
08:00 +13°C° 0.2 mm 4 mps 727 mmHg 85%
09:00 +14°C° 0.2 mm 4 mps 727 mmHg 78%
10:00 +15°C° 0.2 mm 5 mps 727 mmHg 72%
11:00 +16°C° 0.3 mm 6 mps 727 mmHg 69%
12:00 +16°C° 0.3 mm 6 mps 727 mmHg 66%
13:00 +17°C° 0.3 mm 6 mps 727 mmHg 63%
14:00 +17°C° 0.2 mm 6 mps 727 mmHg 63%
15:00 +17°C° 0.2 mm 6 mps 727 mmHg 63%
16:00 +16°C° 0.2 mm 6 mps 727 mmHg 64%
17:00 +16°C° 0 mm 5 mps 727 mmHg 68%
18:00 +15°C° 0 mm 4 mps 727 mmHg 72%
19:00 +14°C° 0 mm 3 mps 727 mmHg 76%
20:00 +13°C° 0 mm 3 mps 727 mmHg 79%
21:00 +13°C° 0 mm 2 mps 727 mmHg 83%
22:00 +13°C° 0 mm 1 mps 726 mmHg 86%
23:00 +12°C° 0 mm 2 mps 726 mmHg 87%

18 August, Tuesday

Time Temperature Precipitation Wind Pressure Humidity
00:00 +12°C° 0 mm 2 mps 726 mmHg 88%
01:00 +12°C° 0 mm 2 mps 726 mmHg 89%
02:00 +11°C° 0.1 mm 3 mps 726 mmHg 91%
03:00 +11°C° 0.1 mm 3 mps 726 mmHg 93%
04:00 +12°C° 0.1 mm 4 mps 726 mmHg 94%
05:00 +12°C° 0 mm 4 mps 726 mmHg 93%
06:00 +12°C° 0 mm 5 mps 726 mmHg 93%
07:00 +12°C° 0 mm 5 mps 726 mmHg 92%
08:00 +13°C° 0.1 mm 5 mps 727 mmHg 88%
09:00 +13°C° 0.1 mm 5 mps 727 mmHg 84%
10:00 +14°C° 0.1 mm 5 mps 728 mmHg 79%
11:00 +15°C° 0.1 mm 5 mps 728 mmHg 73%
12:00 +16°C° 0.1 mm 6 mps 728 mmHg 66%
13:00 +17°C° 0.1 mm 6 mps 728 mmHg 59%
14:00 +17°C° 0 mm 6 mps 728 mmHg 59%
15:00 +17°C° 0 mm 6 mps 728 mmHg 58%
16:00 +17°C° 0 mm 6 mps 728 mmHg 57%
17:00 +16°C° 0 mm 5 mps 729 mmHg 61%
18:00 +15°C° 0 mm 4 mps 729 mmHg 66%
19:00 +14°C° 0 mm 3 mps 729 mmHg 70%
20:00 +13°C° 0 mm 2 mps 729 mmHg 73%
21:00 +12°C° 0 mm 1 mps 730 mmHg 77%
22:00 +11°C° 0 mm 1 mps 730 mmHg 80%
23:00 +11°C° 0 mm 1 mps 730 mmHg 82%
Show more